Regional Weather Roundup
Issued by NWS

Home | Current Version | Previous Version | Graphics & Text | Print | Product List | Glossary On
Versions: 1 2 3 4 5 6 7 8 9 10 11 12 13 14 15 16 17 18 19 20 21 22 23 24 25 26 27 28 29 30 31 32 33 34 35 36 37 38 39 40 41 42 43 44 45 46 47 48 49 50
000
ASUS43 KBIS 270110
RWRND

NORTH DAKOTA REGIONAL WEATHER ROUNDUP
NATIONAL WEATHER SERVICE BISMARCK ND
700 PM CST WED NOV 26 2014

NOTE: "FAIR" INDICATES FEW OR NO CLOUDS BELOW 12,000 FEET WITH NO
SIGNIFICANT WEATHER AND/OR OBSTRUCTIONS TO VISIBILITY.


NDZ001>003-009>011-017-270200-
NORTHWEST NORTH DAKOTA

CITY           SKY/WX    TMP DP  RH WIND       PRES   REMARKS
WILLISTON      CLOUDY     8   2  76 N5        30.38F WCI   0
MINOT          CLOUDY   -11 -14  86 CALM      30.44S
MINOT AFB      CLOUDY   -20 -25  76 NW2       30.44F
$$

NDZ018>021-031>035-040>046-270200-
SOUTHWEST NORTH DAKOTA

CITY           SKY/WX    TMP DP  RH WIND       PRES   REMARKS
BISMARCK       PTCLDY    -6 -10  83 E5        30.45S WCI -17
DICKINSON      MOCLDY    12   8  84 E7        30.30S WCI   1
GARRISON         N/A     -4  -8  83 NE3       30.42S
HETTINGER ARPT MOCLDY    12   9  87 E3        30.32S
$$

NDZ004>008-012>016-024-026-027-054-270200-
NORTHEAST NORTH DAKOTA

CITY           SKY/WX    TMP DP  RH WIND       PRES   REMARKS
GRAND FORKS    CLEAR     -9 -14  78 N6        30.53S WCI -22
GRND FRKS AFB  PTCLDY   -10 -14  80 N5        30.53R WCI -21
DEVILS LAKE    PTCLDY    -2 -15  55 CALM      30.44S
$$

NDZ022-023-025-028>030-036>039-047>053-270200-
SOUTHEAST NORTH DAKOTA

CITY           SKY/WX    TMP DP  RH WIND       PRES   REMARKS
FARGO          PTCLDY    -3  -9  75 N8        30.52R WCI -18
JAMESTOWN      MOCLDY   -13 -17  82 NW7       30.46R WCI -29
$$



USA.gov is the U.S. government's official web portal to all federal, state and local government web resources and services.